Weather History for Wakefield, VA

Change the Weather History Date:

Thursday, December 6, 2012

  Actual Average (KJGG) Record (KJGG)
Temperature  
Mean Temperature 39 °F -  
Max Temperature 48 °F 57 °F 78 °F (2013)
Min Temperature 30 °F 32 °F 20 °F (1969)
Degree Days  
Heating Degree Days 26    
Moisture  
Dew Point 30 °F    
Average Humidity 76    
Maximum Humidity 92    
Minimum Humidity 50    
Precipitation  
Precipitation 0.00 in - - ()
Sea Level Pressure  
Sea Level Pressure 30.31 in    
Wind  
Wind Speed 1 mph (NE)    
Max Wind Speed 5 mph    
Max Gust Speed -    
Visibility 10 miles    
Events      
Averages and records for this station are not official NWS values.
T = Trace of Precipitation, MM = Missing Value Source: NWS Daily Summary

Daily Weather History Graph

Daily Weather History Graph

Search for Another Location

Airport:

Trip Planner

Search our weather history database for the weather conditions in past years. The results will help you decide how hot, cold, wet, or windy it might be!

Date:

Astronomy

Dec. 06, 2012 Rise Set
Actual Time 7:07 AM EST 4:51 PM EST
Civil Twilight 6:38 AM EST 5:19 PM EST
Nautical Twilight 6:06 AM EST 5:52 PM EST
Astronomical Twilight 5:34 AM EST 6:23 PM EST
Moon No Moon Rise 12:07 PM EST (12/6)
Length of Visible Light 10h 41m
Length of Day
9h 43m
Waning Gibbous, 49% of the Moon is Illuminated
Dec 6
Waning Gibbous
Dec 13
New
Dec 20
First Quarter
Dec 28
Full
Jan 4
Last Quarter

Hourly Weather History & Observations

Time (EST) Temp. Windchill Dew Point Humidity Pressure Visibility Wind Dir Wind Speed Gust Speed Precip Events Conditions
12:54 AM 35.1 °F - 33.1 °F 92% 30.26 in 10.0 mi Calm Calm - N/A   Clear
1:54 AM 36.0 °F - 32.0 °F 86% 30.29 in 10.0 mi Calm Calm - N/A   Clear
2:54 AM 33.1 °F - 30.9 °F 92% 30.30 in 10.0 mi Calm Calm - N/A   Clear
3:54 AM 35.1 °F 32.2 °F 30.0 °F 82% 30.30 in 10.0 mi NNE 3.5 mph - N/A   Clear
4:54 AM 34.0 °F 31.0 °F 28.9 °F 82% 30.30 in 10.0 mi NNE 3.5 mph - N/A   Clear
5:54 AM 30.0 °F - 27.0 °F 88% 30.32 in 10.0 mi Calm Calm - N/A   Clear
6:54 AM 30.0 °F - 27.0 °F 88% 30.35 in 10.0 mi Calm Calm - N/A   Clear
7:54 AM 32.0 °F 28.7 °F 27.0 °F 82% 30.36 in 10.0 mi NNE 3.5 mph - N/A   Clear
8:54 AM 37.0 °F 33.3 °F 28.0 °F 70% 30.37 in 10.0 mi NNE 4.6 mph - N/A   Clear
9:54 AM 41.0 °F 38.0 °F 30.0 °F 65% 30.38 in 10.0 mi NNE 4.6 mph - N/A   Clear
10:54 AM 43.0 °F 41.3 °F 30.0 °F 60% 30.37 in 10.0 mi Variable 3.5 mph - N/A   Clear
11:54 AM 46.0 °F - 30.9 °F 56% 30.35 in 10.0 mi Calm Calm - N/A   Clear
12:54 PM 48.0 °F - 30.0 °F 50% 30.32 in 10.0 mi Variable 3.5 mph - N/A   Clear
1:54 PM 46.0 °F 43.9 °F 28.0 °F 50% 30.30 in 10.0 mi SE 4.6 mph - N/A   Clear
2:54 PM 46.9 °F - 30.0 °F 52% 30.30 in 10.0 mi Variable 4.6 mph - N/A   Clear
3:54 PM 46.0 °F - 28.0 °F 50% 30.30 in 10.0 mi Calm Calm - N/A   Clear
4:54 PM 39.9 °F - 30.9 °F 70% 30.30 in 10.0 mi Calm Calm - N/A   Clear
5:54 PM 35.1 °F - 30.0 °F 82% 30.30 in 10.0 mi Calm Calm - N/A   Clear
6:54 PM 36.0 °F - 30.9 °F 82% 30.31 in 10.0 mi Calm Calm - N/A   Clear
7:54 PM 34.0 °F - 30.9 °F 89% 30.29 in 10.0 mi Calm Calm - N/A   Clear
8:54 PM 33.1 °F - 30.0 °F 89% 30.30 in 10.0 mi Calm Calm - N/A   Clear
9:54 PM 30.9 °F - 28.9 °F 92% 30.30 in 9.0 mi Calm Calm - N/A   Clear
10:54 PM 30.9 °F - 28.9 °F 92% 30.29 in 8.0 mi Calm Calm - N/A   Clear
11:54 PM 33.1 °F - 30.9 °F 92% 30.27 in 9.0 mi Calm Calm - N/A   Clear